| time (UTC) | temp F | wind direction | speed MPH | gust MPH | rain 1hr in | rain 24hr in | rain mn in | humidity % | barometer mb |
| 20260902010156 | 60 | 52 | 0.0 | 2.0 | 0.00 | 0.00 | 0.00 | 81 | 1017.8 |
| 20260902005212 | 60 | 40 | 0.0 | 2.0 | 0.00 | 0.00 | 0.00 | 80 | 1017.8 |
| 20260902004207 | 60 | 302 | 0.0 | 2.0 | 0.00 | 0.00 | 0.00 | 80 | 1017.9 |
| 20260902003213 | 60 | 333 | 0.0 | 0.0 | 0.00 | 0.00 | 0.00 | 80 | 1018.0 |
| 20260902002234 | 60 | 336 | 0.0 | 1.0 | 0.00 | 0.00 | 0.00 | 80 | 1018.1 |
| 20260902001248 | 60 | 92 | 0.0 | 0.0 | 0.00 | 0.00 | 0.00 | 80 | 1018.0 |
| 20260902000214 | 60 | 338 | 0.0 | 0.0 | 0.00 | 0.00 | 0.00 | 80 | 1018.1 |
| 20260901234056 | 59 | 305 | 0.0 | 0.0 | 0.00 | 0.00 | 0.00 | 80 | 1018.1 |
| 20260901233102 | 59 | 345 | 0.0 | 0.0 | 0.00 | 0.00 | 0.00 | 81 | 1018.2 |
| 20260901232034 | 59 | 77 | 0.0 | 0.0 | 0.00 | 0.00 | 0.00 | 82 | 1018.3 |
| 20260901231024 | 59 | 77 | 0.0 | 0.0 | 0.00 | 0.00 | 0.00 | 81 | 1018.3 |
| 20260901230005 | 60 | 82 | 0.0 | 0.0 | 0.00 | 0.00 | 0.00 | 81 | 1018.4 |
| 20260901224935 | 59 | 82 | 0.0 | 0.0 | 0.00 | 0.00 | 0.00 | 80 | 1018.4 |
| 20260901223904 | 60 | 337 | 0.0 | 0.0 | 0.00 | 0.00 | 0.00 | 80 | 1018.4 |
| 20260901221652 | 60 | 334 | 0.0 | 0.0 | 0.00 | 0.00 | 0.00 | 80 | 1018.3 |
| 20260901215537 | 60 | 350 | 0.0 | 0.0 | 0.00 | 0.00 | 0.00 | 79 | 1018.4 |
| 20260901214512 | 60 | 290 | 0.0 | 0.0 | 0.00 | 0.00 | 0.00 | 79 | 1018.4 |
| 20260901213523 | 60 | 321 | 0.0 | 0.0 | 0.00 | 0.00 | 0.00 | 79 | 1018.5 |
| 20260901212531 | 60 | 53 | 0.0 | 0.0 | 0.00 | 0.00 | 0.00 | 80 | 1018.5 |
| 20260901210429 | 61 | 53 | 0.0 | 0.0 | 0.00 | 0.00 | 0.00 | 78 | 1018.6 |
| 20260901205413 | 61 | 53 | 0.0 | 0.0 | 0.00 | 0.00 | 0.00 | 76 | 1018.6 |
| 20260901204415 | 61 | 53 | 0.0 | 0.0 | 0.00 | 0.00 | 0.00 | 76 | 1018.5 |
| 20260901203403 | 61 | 53 | 0.0 | 0.0 | 0.00 | 0.00 | 0.00 | 75 | 1018.5 |
| 20260901202338 | 61 | 57 | 0.0 | 0.0 | 0.00 | 0.00 | 0.00 | 75 | 1018.5 |
| 20260901201311 | 62 | 261 | 0.0 | 0.0 | 0.00 | 0.00 | 0.00 | 75 | 1018.5 |
| 20260901200327 | 62 | 261 | 0.0 | 0.0 | 0.00 | 0.00 | 0.00 | 74 | 1018.5 |
| 20260901195306 | 62 | 261 | 0.0 | 0.0 | 0.00 | 0.00 | 0.00 | 73 | 1018.5 |
| 20260901194248 | 63 | 261 | 0.0 | 0.0 | 0.00 | 0.00 | 0.00 | 72 | 1018.5 |
| 20260901193222 | 64 | 261 | 0.0 | 0.0 | 0.00 | 0.00 | 0.00 | 70 | 1018.6 |
| 20260901192200 | 64 | 260 | 0.0 | 0.0 | 0.00 | 0.00 | 0.00 | 68 | 1018.5 |
| 20260901191209 | 64 | 251 | 0.0 | 0.0 | 0.00 | 0.00 | 0.00 | 67 | 1018.4 |
| 20260901190221 | 65 | 286 | 0.0 | 1.0 | 0.00 | 0.00 | 0.00 | 67 | 1018.3 |
| 20260901185222 | 65 | 214 | 0.0 | 0.0 | 0.00 | 0.00 | 0.00 | 66 | 1018.3 |
| 20260901184240 | 65 | 236 | 0.0 | 1.0 | 0.00 | 0.00 | 0.00 | 65 | 1018.2 |
| 20260901183220 | 66 | 285 | 0.0 | 0.0 | 0.00 | 0.00 | 0.00 | 64 | 1018.2 |
| 20260901182149 | 66 | 339 | 0.0 | 0.0 | 0.00 | 0.00 | 0.00 | 64 | 1018.1 |
| 20260901181130 | 66 | 288 | 0.0 | 2.0 | 0.00 | 0.00 | 0.00 | 64 | 1018.0 |
| 20260901180100 | 67 | 250 | 0.0 | 0.0 | 0.00 | 0.00 | 0.00 | 67 | 1018.0 |
| 20260901175057 | 67 | 272 | 0.0 | 1.0 | 0.00 | 0.00 | 0.00 | 65 | 1017.9 |
| 20260901172935 | 68 | 249 | 0.0 | 0.0 | 0.00 | 0.00 | 0.00 | 65 | 1017.9 |
| 20260901171922 | 68 | 357 | 0.0 | 1.0 | 0.00 | 0.00 | 0.00 | 65 | 1017.8 |
| 20260901170911 | 68 | 227 | 0.0 | 0.0 | 0.00 | 0.00 | 0.00 | 65 | 1017.8 |
| 20260901165922 | 69 | 283 | 0.0 | 1.0 | 0.00 | 0.00 | 0.00 | 64 | 1017.7 |
| 20260901164922 | 69 | 342 | 0.0 | 6.0 | 0.00 | 0.00 | 0.00 | 63 | 1017.8 |
| 20260901163859 | 69 | 257 | 0.0 | 6.0 | 0.00 | 0.00 | 0.00 | 64 | 1018.1 |
| 20260901162923 | 69 | 300 | 1.0 | 6.0 | 0.00 | 0.00 | 0.00 | 63 | 1017.9 |
| 20260901161851 | 70 | 130 | 0.0 | 4.0 | 0.00 | 0.00 | 0.00 | 62 | 1017.7 |
| 20260901160914 | 70 | 300 | 0.0 | 1.0 | 0.00 | 0.00 | 0.00 | 62 | 1017.7 |
| 20260901154720 | 70 | 252 | 1.0 | 8.0 | 0.00 | 0.00 | 0.00 | 62 | 1018.0 |
| 20260901153718 | 70 | 249 | 1.0 | 6.0 | 0.00 | 0.00 | 0.00 | 61 | 1017.8 |
| 20260901151526 | 70 | 298 | 0.0 | 7.0 | 0.00 | 0.00 | 0.00 | 62 | 1018.0 |
| 20260901150501 | 70 | 302 | 1.0 | 7.0 | 0.00 | 0.00 | 0.00 | 60 | 1018.1 |
| 20260901145501 | 70 | 288 | 0.0 | 5.0 | 0.00 | 0.00 | 0.00 | 60 | 1018.1 |
| 20260901144501 | 70 | 186 | 0.0 | 5.0 | 0.00 | 0.00 | 0.00 | 61 | 1018.1 |
| 20260901143428 | 70 | 56 | 1.0 | 6.0 | 0.00 | 0.00 | 0.00 | 62 | 1018.1 |
| 20260901142448 | 70 | 21 | 1.0 | 6.0 | 0.00 | 0.00 | 0.00 | 60 | 1018.1 |
| 20260901141449 | 70 | 210 | 0.0 | 5.0 | 0.00 | 0.00 | 0.00 | 62 | 1018.0 |
| 20260901140418 | 70 | 319 | 0.0 | 5.0 | 0.00 | 0.00 | 0.00 | 61 | 1018.1 |
| 20260901135432 | 70 | 236 | 1.0 | 7.0 | 0.00 | 0.00 | 0.00 | 59 | 1018.1 |
| 20260901134452 | 71 | 110 | 0.0 | 7.0 | 0.00 | 0.00 | 0.00 | 61 | 1018.1 |
| 20260901133458 | 71 | 129 | 0.0 | 7.0 | 0.00 | 0.00 | 0.00 | 61 | 1018.1 |
| 20260901132437 | 71 | 320 | 0.0 | 5.0 | 0.00 | 0.00 | 0.00 | 60 | 1018.0 |
| 20260901131455 | 71 | 63 | 0.0 | 5.0 | 0.00 | 0.00 | 0.00 | 60 | 1018.1 |
| 20260901125238 | 70 | 245 | 1.0 | 11.0 | 0.00 | 0.00 | 0.00 | 62 | 1018.2 |
| 20260901124239 | 71 | 251 | 1.0 | 11.0 | 0.00 | 0.00 | 0.00 | 60 | 1018.2 |
| 20260901123231 | 71 | 63 | 0.0 | 7.0 | 0.00 | 0.01 | 0.00 | 58 | 1018.2 |
| 20260901122237 | 71 | 245 | 1.0 | 7.0 | 0.00 | 0.01 | 0.00 | 59 | 1018.2 |
| 20260901121206 | 71 | 276 | 0.0 | 8.0 | 0.00 | 0.01 | 0.00 | 58 | 1018.4 |
| 20260901120204 | 70 | 295 | 1.0 | 8.0 | 0.00 | 0.01 | 0.00 | 58 | 1018.3 |
| 20260901112950 | 69 | 70 | 0.0 | 7.0 | 0.00 | 0.01 | 0.00 | 60 | 1018.3 |
| 20260901110847 | 68 | 84 | 0.0 | 1.0 | 0.00 | 0.01 | 0.00 | 61 | 1018.3 |
| 20260901105812 | 68 | 252 | 0.0 | 7.0 | 0.00 | 0.01 | 0.00 | 61 | 1018.5 |
| 20260901103710 | 67 | 290 | 0.0 | 5.0 | 0.00 | 0.01 | 0.00 | 62 | 1018.7 |
| 20260901102643 | 66 | 259 | 0.0 | 5.0 | 0.00 | 0.01 | 0.00 | 63 | 1018.8 |
| 20260901101633 | 66 | 281 | 0.0 | 4.0 | 0.00 | 0.01 | 0.00 | 62 | 1018.8 |
| 20260901100627 | 66 | 248 | 0.0 | 5.0 | 0.00 | 0.01 | 0.00 | 62 | 1018.8 |
| 20260901094520 | 65 | 269 | 0.0 | 6.0 | 0.00 | 0.01 | 0.00 | 64 | 1018.9 |
| 20260901092256 | 64 | 30 | 1.0 | 7.0 | 0.00 | 0.01 | 0.00 | 63 | 1019.0 |
| 20260901091255 | 64 | 268 | 0.0 | 5.0 | 0.00 | 0.01 | 0.00 | 66 | 1019.1 |
| 20260901090235 | 64 | 47 | 0.0 | 5.0 | 0.00 | 0.01 | 0.00 | 67 | 1019.1 |
| 20260901085257 | 64 | 72 | 0.0 | 4.0 | 0.00 | 0.01 | 0.00 | 66 | 1019.2 |
| 20260901084247 | 64 | 101 | 0.0 | 2.0 | 0.00 | 0.01 | 0.00 | 67 | 1019.0 |
| 20260901083244 | 63 | 232 | 0.0 | 5.0 | 0.00 | 0.01 | 0.00 | 69 | 1019.0 |
| 20260901082253 | 62 | 250 | 0.0 | 5.0 | 0.00 | 0.01 | 0.00 | 71 | 1019.0 |
| 20260901081246 | 62 | 274 | 0.0 | 4.0 | 0.00 | 0.01 | 0.00 | 71 | 1019.0 |
| 20260901080224 | 62 | 256 | 0.0 | 5.0 | 0.00 | 0.01 | 0.00 | 70 | 1019.0 |
| 20260901075208 | 62 | 71 | 0.0 | 4.0 | 0.00 | 0.01 | 0.00 | 69 | 1019.0 |
| 20260901073034 | 61 | 252 | 0.0 | 4.0 | 0.00 | 0.02 | 0.00 | 71 | 1018.8 |
| 20260901072033 | 61 | 304 | 0.0 | 2.0 | 0.00 | 0.02 | 0.00 | 72 | 1018.8 |
| 20260901071045 | 61 | 93 | 0.0 | 0.0 | 0.00 | 0.02 | 0.00 | 73 | 1018.7 |
| 20260901070027 | 59 | 300 | 0.0 | 0.0 | 0.00 | 0.02 | 0.00 | 75 | 1018.8 |
| 20260901065024 | 59 | 100 | 0.0 | 0.0 | 0.00 | 0.02 | 0.00 | 76 | 1018.8 |
| 20260901064017 | 57 | 245 | 0.0 | 0.0 | 0.00 | 0.02 | 0.00 | 79 | 1018.7 |
| 20260901061915 | 55 | 26 | 0.0 | 0.0 | 0.00 | 0.02 | 0.00 | 82 | 1018.8 |
| 20260901060918 | 55 | 285 | 0.0 | 0.0 | 0.00 | 0.02 | 0.00 | 82 | 1018.7 |
| 20260901055911 | 55 | 70 | 0.0 | 0.0 | 0.00 | 0.02 | 0.00 | 82 | 1018.6 |
| 20260901054916 | 55 | 98 | 0.0 | 0.0 | 0.00 | 0.02 | 0.00 | 83 | 1018.5 |
| 20260901053939 | 55 | 68 | 0.0 | 0.0 | 0.00 | 0.02 | 0.00 | 84 | 1018.5 |
| 20260901052955 | 56 | 307 | 0.0 | 0.0 | 0.00 | 0.02 | 0.00 | 84 | 1018.3 |
| 20260901051925 | 56 | 268 | 0.0 | 0.0 | 0.00 | 0.02 | 0.00 | 84 | 1018.2 |
| 20260901045829 | 55 | 288 | 0.0 | 5.0 | 0.00 | 0.02 | 0.00 | 87 | 1018.3 |
| 20260901044836 | 55 | 219 | 0.0 | 0.0 | 0.00 | 0.02 | 0.00 | 87 | 1018.3 |
| 20260901043852 | 55 | 188 | 0.0 | 0.0 | 0.00 | 0.02 | 0.00 | 87 | 1018.3 |
| 20260901041813 | 55 | 215 | 0.0 | 0.0 | 0.00 | 0.02 | 0.00 | 87 | 1018.2 |
| 20260901035632 | 54 | 217 | 0.0 | 0.0 | 0.00 | 0.03 | 0.00 | 87 | 1018.2 |
| 20260901034624 | 54 | 220 | 0.0 | 0.0 | 0.00 | 0.03 | 0.00 | 87 | 1018.2 |
| 20260901032445 | 55 | 218 | 0.0 | 0.0 | 0.00 | 0.03 | 0.00 | 86 | 1018.1 |
| 20260901031454 | 55 | 221 | 0.0 | 0.0 | 0.00 | 0.03 | 0.00 | 86 | 1018.0 |
| 20260901025319 | 55 | 218 | 0.0 | 0.0 | 0.00 | 0.03 | 0.00 | 87 | 1017.9 |
| 20260901023132 | 54 | 103 | 0.0 | 0.0 | 0.00 | 0.03 | 0.00 | 87 | 1018.0 |
| 20260901022145 | 54 | 266 | 0.0 | 0.0 | 0.00 | 0.03 | 0.00 | 87 | 1018.1 |
| 20260901021125 | 55 | 268 | 0.0 | 0.0 | 0.00 | 0.03 | 0.00 | 87 | 1018.1 |
| 20260901020116 | 55 | 269 | 0.0 | 0.0 | 0.00 | 0.03 | 0.00 | 86 | 1018.2 |
| 20260901015127 | 55 | 266 | 0.0 | 0.0 | 0.00 | 0.03 | 0.00 | 86 | 1018.1 |
| 20260901013035 | 55 | 40 | 0.0 | 0.0 | 0.00 | 0.03 | 0.00 | 85 | 1018.1 |